Eastover, SC

12:08 AM EDT on October 24, 2017 (GMT -0400)
McEntire Angs

Weather History for KMMT - January, 2013

Change the Weather History Date:

Wednesday, January 9, 2013

  Actual Average Record
Temperature  
Mean Temperature 57 °F -  
Max Temperature 70 °F 55 °F 71 °F (2003)
Min Temperature 44 °F 33 °F 16 °F (2015)
Degree Days  
Heating Degree Days 8    
Growing Degree Days 7 (Base 50)    
Moisture  
Dew Point 48 °F    
Average Humidity 78    
Maximum Humidity 97    
Minimum Humidity 50    
Precipitation  
Precipitation 0.00 in - - ()
Sea Level Pressure  
Sea Level Pressure 30.39 in    
Wind  
Wind Speed 3 mph (NNE)    
Max Wind Speed 6 mph    
Max Gust Speed -    
Visibility 10 miles    
Events      
Averages and records for this station are not official NWS values.
T = Trace of Precipitation, MM = Missing Value Source: NWS Daily Summary

Daily Weather History Graph

Daily Weather History Graph

Search for Another Location

Airport or City:

Trip Planner

Search our weather history database for the weather conditions in past years. The results will help you decide how hot, cold, wet, or windy it might be!

Date:

Astronomy

Jan. 09, 2013 Rise Set
Actual Time 7:29 AM EST 5:32 PM EST
Civil Twilight 7:01 AM EST 5:59 PM EST
Nautical Twilight 6:30 AM EST 6:30 PM EST
Astronomical Twilight 6:00 AM EST 7:00 PM EST
Moon 5:06 AM EST (1/9) 3:32 PM EST (1/9)
Length of Visible Light 10h 57m
Length of Day
10h 03m
Waning Crescent, 6% of the Moon is Illuminated
Jan 9
Waning Crescent
Jan 11
New
Jan 18
First Quarter
Jan 26
Full
Feb 3
Last Quarter

Hourly Weather History & Observations

Time (EST) Temp. Windchill Dew Point Humidity Pressure Visibility Wind Dir Wind Speed Gust Speed Precip Events Conditions
12:55 AM 50.9 °F - 43.3 °F 75% 30.36 in 10.0 mi NE 4.6 mph - N/A   Clear
1:55 AM 48.2 °F - 43.3 °F 83% 30.36 in 10.0 mi ENE 3.5 mph - N/A   Clear
2:55 AM 45.1 °F - 41.7 °F 88% 30.37 in 10.0 mi Calm Calm - N/A   Clear
3:55 AM 44.8 °F 41.6 °F 42.6 °F 92% 30.37 in 10.0 mi WNW 5.8 mph - N/A   Clear
4:55 AM 44.2 °F - 42.4 °F 93% 30.37 in 10.0 mi Calm Calm - N/A   Mostly Cloudy
5:55 AM 46.4 °F - 44.2 °F 92% 30.38 in 10.0 mi Calm Calm - N/A   Overcast
6:55 AM 45.1 °F - 43.7 °F 95% 30.38 in 10.0 mi Calm Calm - N/A   Mostly Cloudy
7:55 AM 46.2 °F - 43.9 °F 92% 30.40 in 10.0 mi Calm Calm - N/A   Partly Cloudy
8:55 AM 50.7 °F - 46.9 °F 87% 30.43 in 10.0 mi NW 3.5 mph - N/A   Partly Cloudy
9:55 AM 57.6 °F - 48.7 °F 72% 30.42 in 10.0 mi ENE 4.6 mph - N/A   Partly Cloudy
10:55 AM 63.0 °F - 50.5 °F 64% 30.43 in 10.0 mi Calm Calm - N/A   Partly Cloudy
11:55 AM 67.8 °F - 51.3 °F 55% 30.41 in 10.0 mi Variable 3.5 mph - N/A   Scattered Clouds
12:55 PM 70.7 °F - 51.3 °F 50% 30.39 in 10.0 mi Variable 4.6 mph - N/A   Mostly Cloudy
1:55 PM 70.5 °F - 50.9 °F 50% 30.38 in 10.0 mi Variable 4.6 mph - N/A   Mostly Cloudy
2:55 PM 69.1 °F - 51.6 °F 54% 30.38 in 10.0 mi NE 4.6 mph - N/A   Overcast
3:55 PM 68.2 °F - 52.7 °F 58% 30.38 in 10.0 mi East 4.6 mph - N/A   Overcast
4:55 PM 65.8 °F - 52.7 °F 62% 30.38 in 10.0 mi Calm Calm - N/A   Overcast
5:55 PM 62.6 °F - 52.3 °F 69% 30.38 in 10.0 mi Calm Calm - N/A   Overcast
6:55 PM 59.2 °F - 52.5 °F 79% 30.40 in 10.0 mi Calm Calm - N/A   Overcast
7:55 PM 56.7 °F - 53.6 °F 89% 30.40 in 10.0 mi Calm Calm - N/A   Overcast
8:55 PM 52.7 °F - 51.1 °F 94% 30.40 in 10.0 mi Calm Calm - N/A   Overcast
9:55 PM 52.2 °F - 49.6 °F 91% 30.40 in 10.0 mi Calm Calm - N/A   Overcast
10:55 PM 52.0 °F - 49.8 °F 92% 30.41 in 10.0 mi North 3.5 mph - N/A   Mostly Cloudy
11:55 PM 50.4 °F - 49.5 °F 97% 30.42 in 10.0 mi NW 3.5 mph - N/A   Clear